Regional Weather Roundup
Issued by NWS Albany, NY

Home | Current Version | Previous Version | Graphics & Text | Print | Product List | Glossary Off
Versions: 1 2 3 4 5 6 7 8 9 10 11 12 13 14 15 16 17 18 19 20 21 22 23 24 25 26 27

000
ASUS41 KALY 120010
RWRALY

NEW YORK STATE HOURLY WEATHER ROUNDUP
NATIONAL WEATHER SERVICE ALBANY NY
700 PM EST MON DEC 11 2017

NOTE: "FAIR" INDICATES FEW OR NO CLOUDS BELOW 12,000 FEET WITH NO
SIGNIFICANT WEATHER AND/OR NO OBSTRUCTIONS TO VISIBILITY.

NYZ032-033-038>043-046>054-057>066-NYZ062>081-082-084-120100-
EAST


CITY           SKY/WX    TMP DP  RH WIND       PRES   REMARKS
ALBANY         CLOUDY    30  17  58 N3        29.99F
GLENS FALLS    PTCLDY    26  19  74 E10       29.99F WCI  16
POUGHKEEPSIE   CLOUDY    33  21  61 CALM      29.99R
NEWBURGH       MOCLDY    34  23  64 CALM      29.99R
MONTGOMERY     CLOUDY    31  23  72 CALM      29.97R
WHITE PLAINS   CLOUDY    34  21  59 E3        29.99R
ISLIP          CLOUDY    33  23  66 CALM      30.01S
NEW YORK CITY  PTCLDY    40  21  46 SW6       30.01S
CENTRAL PARK   PTCLDY    38  21  50 W7        30.03R WCI  33
$$

NYZ005>009-017-018-044>046-055-056-120100-
CENTRAL


CITY           SKY/WX    TMP DP  RH WIND       PRES   REMARKS
FULTON         CLOUDY    23  17  78 E5        29.93F WCI  17
SYRACUSE       CLOUDY    24  19  81 E7        29.94F WCI  16
ROME           CLOUDY    24  17  74 E5        29.97F WCI  18
ELMIRA         CLOUDY    31  23  72 CALM      29.88F
BINGHAMTON     CLOUDY    26  20  77 SE5       29.85F WCI  20
MONTICELLO     PTCLDY    28  19  69 S5        29.93  WCI  23
$$

NYZ026>034-041>043-087-120100-
NORTH


CITY           SKY/WX    TMP DP  RH WIND       PRES   REMARKS
WATERTOWN      CLOUDY    20  14  77 NE5       29.96F WCI  13
FORT DRUM      NOT AVBL
OGDENSBURG     FAIR      18  10  70 NE3       29.99F
MASSENA        CLOUDY    15   7  70 NE7       30.03F WCI   5
SARANAC LAKE   MOCLDY     9   7  92 CALM      29.87F
PLATTSBURGH    CLOUDY    16   7  67 NW6       30.03F WCI   7
$$

NYZ001>004-010>016-019>021-085-120100-
WEST


CITY           SKY/WX    TMP DP  RH WIND       PRES   REMARKS
NIAGARA FALLS  FLURRIES  26  20  77 NE6       29.85F WCI  19
BUFFALO        FLURRIES  25  23  92 E7        29.84F WCI  17
DUNKIRK        FLURRIES  26  24  92 CALM      29.84F
JAMESTOWN      CLOUDY    25  23  92 S5        29.78F WCI  19
WELLSVILLE     CLOUDY    27  20  75 S7        29.79F WCI  19
ROCHESTER      FLURRIES  24  21  88 SE9       29.89F WCI  14
PENN YAN       CLOUDY    25  21  85 VRB5      29.87F WCI  19
$$

             KEY
       WCI = WIND CHILL INDEX
       VSB = VISIBILITY
       HX  = HEAT INDEX
$$




USA.gov is the U.S. government's official web portal to all federal, state and local government web resources and services.